NAVSTAR 80 (USA 309)

Last updated on Sat Dec 05 2020 00:02:02 GMT+0000 (Coordinated Universal Time)

1 46826U 20078A 20338.52374793 -.00000017 00000-0 00000+0 0 9997 2 46826 54.9723 292.8108 0000768 253.3342 106.6558 2.00556461 966
UTC large
Height (km)
Speed (km/s)
/
Latitude / Longitude
Inclination (degrees)
Orbital Period (minutes)
Azimuth
Elevation
Range (km)
Doppler Factor

Next 0 passes for location: London (51.5072 / 0.1276)

Sorry there are no passes over London.